Weather History for Wolf Point, MT

Change the Weather History Date:

Tuesday, February 12, 2013

  Actual Average Record
Temperature  
Mean Temperature 26 °F -  
Max Temperature 35 °F 29 °F 46 °F (2005)
Min Temperature 16 °F 4 °F -9 °F (2004)
Degree Days  
Heating Degree Days 39    
Cooling Degree Days 0    
Moisture  
Dew Point 20 °F    
Average Humidity 80    
Maximum Humidity 96    
Minimum Humidity 67    
Precipitation  
Precipitation 0.00 in 0.00 in 0.00 in (2014)
Month to date precipitation 0.08 0.06  
Year to date precipitation 0.19 0.37  
Sea Level Pressure  
Sea Level Pressure 29.97 in    
Wind  
Wind Speed 9 mph (WSW)    
Max Wind Speed 15 mph    
Max Gust Speed -    
Visibility 10 miles    
Events      
T = Trace of Precipitation, MM = Missing Value Source: NWS Daily Summary

Daily Weather History Graph

Daily Weather History Graph

Search for Another Location

Airport:

Trip Planner

Search our weather history database for the weather conditions in past years. The results will help you decide how hot, cold, wet, or windy it might be!

Date:

Astronomy

Feb. 12, 2013 Rise Set
Actual Time 7:13 AM MST 5:20 PM MST
Civil Twilight 6:41 AM MST 5:52 PM MST
Nautical Twilight 6:04 AM MST 6:29 PM MST
Astronomical Twilight 5:28 AM MST 7:05 PM MST
Moon 7:55 AM MST (2/12) 8:43 PM MST (2/12)
Length of Visible Light 11h 11m
Length of Day
10h 07m
Waxing Crescent, 8% of the Moon is Illuminated
Feb 12
Waxing Crescent
Feb 17
First Quarter
Feb 25
Full
Mar 4
Last Quarter
Mar 11
New

Hourly Weather History & Observations

Time (MST) Temp. Windchill Dew Point Humidity Pressure Visibility Wind Dir Wind Speed Gust Speed Precip Events Conditions
12:53 AM 18.0 °F 5.4 °F 12.9 °F 81% 29.98 in 10.0 mi SW 11.5 mph - N/A   Clear
1:53 AM 19.0 °F 8.2 °F 12.9 °F 77% 29.99 in 10.0 mi West 9.2 mph - N/A   Clear
2:53 AM 17.1 °F 8.7 °F 12.9 °F 84% 29.99 in 10.0 mi West 5.8 mph - N/A   Clear
3:53 AM 16.0 °F 5.3 °F 12.0 °F 84% 29.99 in 10.0 mi SW 8.1 mph - N/A   Partly Cloudy
4:53 AM 18.0 °F 6.1 °F 12.9 °F 81% 30.00 in 10.0 mi SW 10.4 mph - N/A   Overcast
5:53 AM 19.9 °F 6.2 °F 15.1 °F 81% 30.01 in 10.0 mi WSW 15.0 mph - N/A   Overcast
6:53 AM 19.9 °F 8.6 °F 16.0 °F 85% 30.02 in 10.0 mi SW 10.4 mph - N/A   Overcast
7:53 AM 21.9 °F 12.5 °F 17.1 °F 82% 30.03 in 10.0 mi SW 8.1 mph - N/A   Overcast
8:53 AM 23.0 °F 11.1 °F 18.0 °F 81% 30.04 in 10.0 mi WSW 12.7 mph - N/A   Overcast
9:53 AM 26.1 °F 16.8 °F 19.9 °F 78% 30.04 in 10.0 mi WSW 9.2 mph - N/A   Overcast
10:53 AM 28.9 °F 18.2 °F 21.9 °F 75% 30.04 in 10.0 mi WSW 13.8 mph - N/A   Overcast
11:53 AM 30.9 °F 22.8 °F 23.0 °F 72% 30.03 in 10.0 mi WSW 9.2 mph - N/A   Overcast
12:53 PM 32.0 °F 22.1 °F 23.0 °F 69% 30.00 in 10.0 mi West 13.8 mph - N/A   Overcast
1:53 PM 34.0 °F 26.6 °F 24.1 °F 67% 29.97 in 10.0 mi WSW 9.2 mph - N/A   Mostly Cloudy
2:53 PM 34.0 °F 26.0 °F 25.0 °F 70% 29.96 in 10.0 mi West 10.4 mph - N/A   Clear
3:53 PM 34.0 °F 26.6 °F 25.0 °F 70% 29.95 in 10.0 mi West 9.2 mph - N/A   Clear
4:53 PM 34.0 °F 27.2 °F 26.1 °F 73% 29.94 in 10.0 mi WSW 8.1 mph - N/A   Mostly Cloudy
5:53 PM 34.0 °F 26.6 °F 27.0 °F 75% 29.95 in 10.0 mi West 9.2 mph - N/A   Overcast
6:53 PM 33.1 °F 26.1 °F 27.0 °F 78% 29.94 in 10.0 mi West 8.1 mph - N/A   Overcast
7:53 PM 32.0 °F 28.7 °F 26.1 °F 79% 29.89 in 10.0 mi WSW 3.5 mph - N/A   Clear
8:53 PM 27.0 °F 21.6 °F 24.1 °F 89% 29.89 in 10.0 mi West 4.6 mph - N/A   Mostly Cloudy
9:53 PM 24.1 °F - 21.9 °F 91% 29.87 in 10.0 mi Calm Calm - N/A   Clear
10:53 PM 19.9 °F - 19.0 °F 96% 29.84 in 10.0 mi Calm Calm - N/A   Clear
11:53 PM 21.9 °F - 19.9 °F 92% 29.81 in 10.0 mi Calm Calm - N/A   Clear